FW4043 Weather Reports


Display with metric or nautical units.
time (UTC)temp
F
wind
direction
speed
MPH
gust
MPH
rain 1hr
in
rain 24hr
in
rain mn
in
humidity
%
barometer
mb
20260508041549 73 138 7.0 11.0 0.00 0.00 0.00 83 1014.4
20260508040048 73 132 6.0 8.0 0.00 0.00 0.00 83 1014.7
20260508034559 74 117 3.0 5.0 0.00 0.00 0.00 82 1015.1
20260508034502 74 102 3.0 5.0 0.00 0.00 0.00 82 1015.1
20260508033022 74 86 0.0 0.0 0.00 0.00 0.00 82 1015.7
20260508031517 74 86 0.0 0.0 0.00 0.00 0.00 82 1015.5
20260508030018 74 86 0.0 3.0 0.00 0.00 0.00 82 1015.2
20260508024525 74 86 0.0 2.0 0.00 0.00 0.00 81 1015.3
20260508023032 74 86 0.0 5.0 0.00 0.00 0.00 82 1015.2
20260508021538 74 85 1.0 6.0 0.00 0.00 0.00 81 1015.0
20260508020036 75 98 3.0 5.0 0.00 0.00 0.00 81 1015.2
20260508014547 75 78 4.0 8.0 0.00 0.00 0.00 81 1014.9
20260508013045 75 55 5.0 9.0 0.00 0.00 0.00 81 1015.0
20260508011552 75 35 4.0 7.0 0.00 0.00 0.00 81 1015.1
20260508010121 76 68 2.0 5.0 0.00 0.00 0.00 82 1015.2
20260508010001 76 68 1.0 5.0 0.00 0.00 0.00 82 1015.2
20260508004557 76 78 3.0 5.0 0.00 0.00 0.00 81 1015.0
20260508004501 76 78 2.0 6.0 0.00 0.00 0.00 81 1015.0
20260508003042 76 65 2.0 6.0 0.00 0.00 0.00 82 1014.8
20260508001559 76 55 4.0 7.0 0.00 0.00 0.00 81 1014.8
20260508000006 77 67 3.0 7.0 0.00 0.00 0.00 81 1015.1
20260507234514 77 74 4.0 8.0 0.00 0.00 0.00 81 1014.9
20260507233017 77 92 5.0 7.0 0.00 0.00 0.00 81 1014.6
20260507231519 77 80 4.0 8.0 0.00 0.00 0.00 81 1014.6
20260507230036 77 98 5.0 11.0 0.00 0.00 0.00 81 1014.6
20260507224531 77 49 5.0 8.0 0.00 0.00 0.00 81 1014.7
20260507223105 77 76 5.0 10.0 0.00 0.00 0.00 81 1014.7
20260507221543 77 58 4.0 9.0 0.00 0.00 0.00 81 1014.5
20260507220043 77 66 5.0 9.0 0.00 0.00 0.00 81 1014.7
20260507214556 77 12 5.0 8.0 0.00 0.00 0.00 81 1014.8
20260507213134 77 69 4.0 10.0 0.00 0.00 0.00 82 1014.9
20260507211513 77 82 8.0 12.0 0.00 0.00 0.00 81 1014.9
20260507210018 76 52 7.0 13.0 0.00 0.00 0.00 82 1015.1
20260507204519 76 48 6.0 11.0 0.00 0.00 0.00 83 1015.4
20260507203028 75 46 5.0 9.0 0.00 0.00 0.00 83 1015.4
20260507201517 74 40 7.0 9.0 0.00 0.00 0.00 83 1015.4
20260507200045 74 74 5.0 9.0 0.00 0.00 0.00 83 1015.6
20260507194531 73 21 7.0 10.0 0.00 0.00 0.00 84 1015.9
20260507193044 73 29 8.0 12.0 0.00 0.00 0.00 84 1016.1
20260507191538 72 40 6.0 11.0 0.00 0.00 0.00 84 1016.3
20260507190051 71 41 8.0 13.0 0.00 0.00 0.00 84 1016.5
20260507184558 71 46 6.0 11.0 0.00 0.00 0.00 85 1016.7
20260507184504 71 68 5.0 11.0 0.00 0.00 0.00 85 1016.7
20260507183008 71 51 8.0 11.0 0.00 0.00 0.00 85 1016.8
20260507181512 70 30 5.0 14.0 0.00 0.00 0.00 85 1016.8
20260507180016 69 5 6.0 12.0 0.00 0.00 0.00 86 1016.9
20260507174520 68 45 6.0 12.0 0.00 0.00 0.00 86 1017.2
20260507173017 68 11 6.0 12.0 0.00 0.00 0.00 86 1017.4
20260507171518 66 38 6.0 10.0 0.00 0.00 0.00 86 1017.6
20260507170022 66 329 5.0 8.0 0.00 0.00 0.00 87 1017.7
20260507164524 66 69 6.0 9.0 0.00 0.00 0.00 87 1017.5
20260507163032 66 46 6.0 10.0 0.00 0.00 0.00 87 1017.3
20260507161550 65 12 7.0 12.0 0.00 0.00 0.00 87 1017.3
20260507160042 65 18 5.0 11.0 0.00 0.00 0.00 87 1017.4
20260507154546 65 34 6.0 10.0 0.00 0.00 0.00 87 1017.1
20260507153107 65 50 7.0 12.0 0.00 0.00 0.00 87 1017.0
20260507151557 66 12 6.0 9.0 0.00 0.00 0.00 87 1017.3
20260507150107 66 32 5.0 9.0 0.00 0.00 0.00 87 1017.3
20260507144505 66 348 6.0 15.0 0.00 0.00 0.00 87 1017.4
20260507143012 66 38 5.0 10.0 0.00 0.00 0.00 87 1017.1
20260507141512 66 54 6.0 14.0 0.00 0.00 0.00 87 1016.9
20260507140013 66 11 9.0 16.0 0.00 0.00 0.00 87 1016.4
20260507134516 66 28 8.0 18.0 0.00 0.00 0.00 87 1016.1
20260507133016 67 9 7.0 16.0 0.00 0.00 0.00 87 1016.6
20260507131525 68 360 7.0 12.0 0.00 0.00 0.00 87 1016.9
20260507130019 68 350 5.0 10.0 0.00 0.00 0.00 87 1016.8
20260507124523 68 24 6.0 11.0 0.00 0.00 0.00 87 1016.6
20260507123030 68 18 2.0 9.0 0.00 0.00 0.00 87 1016.7
20260507121538 68 25 5.0 10.0 0.00 0.00 0.00 87 1016.0
20260507120038 68 42 7.0 12.0 0.00 0.00 0.00 87 1015.6
20260507114537 68 24 5.0 8.0 0.00 0.00 0.00 87 1015.7
20260507113038 68 22 6.0 10.0 0.00 0.00 0.00 87 1015.4
20260507111550 68 30 5.0 9.0 0.00 0.00 0.00 87 1015.2
20260507110054 68 51 6.0 10.0 0.00 0.00 0.00 87 1015.1
20260507104559 68 33 2.0 11.0 0.00 0.00 0.00 87 1015.2
20260507104502 68 33 2.0 11.0 0.00 0.00 0.00 87 1015.2
20260507103003 68 25 6.0 10.0 0.00 0.00 0.00 86 1015.0
20260507101507 68 355 5.0 9.0 0.00 0.00 0.00 86 1015.0
20260507100021 68 44 4.0 8.0 0.00 0.00 0.00 86 1014.7
20260507094520 68 32 6.0 9.0 0.00 0.00 0.00 86 1014.3
20260507093023 68 46 6.0 10.0 0.00 0.00 0.00 86 1014.4
20260507091523 68 34 6.0 12.0 0.00 0.00 0.00 86 1014.4
20260507090031 69 26 6.0 12.0 0.00 0.00 0.00 86 1014.3
20260507084544 69 349 8.0 11.0 0.00 0.00 0.00 86 1014.4
20260507083054 69 9 6.0 11.0 0.00 0.00 0.00 86 1014.3
20260507081552 69 355 7.0 12.0 0.00 0.00 0.00 86 1014.0
20260507080049 69 17 7.0 13.0 0.00 0.00 0.00 86 1014.2
20260507074548 70 360 6.0 10.0 0.00 0.00 0.00 86 1014.4
20260507073101 70 348 7.0 11.0 0.00 0.00 0.00 86 1014.4
20260507071503 70 5 8.0 12.0 0.00 0.00 0.00 86 1014.7
20260507070010 70 342 7.0 12.0 0.00 0.00 0.00 86 1014.8
20260507064511 71 355 7.0 11.0 0.00 0.00 0.00 86 1014.5
20260507063012 71 346 8.0 14.0 0.00 0.00 0.00 86 1014.4
20260507061519 72 335 7.0 13.0 0.00 0.00 0.00 86 1014.4
20260507060014 72 328 7.0 12.0 0.00 0.00 0.00 86 1014.3
20260507054510 72 360 6.0 11.0 0.00 0.00 0.00 86 1014.1
20260507053011 72 336 8.0 12.0 0.00 0.00 0.00 86 1014.1
20260507051519 72 344 8.0 12.0 0.00 0.00 0.00 86 1013.9
20260507050032 72 5 9.0 12.0 0.00 0.00 0.00 86 1014.1
20260507044516 72 323 7.0 12.0 0.00 0.00 0.00 86 1014.1
20260507043020 73 355 6.0 12.0 0.00 0.00 0.00 86 1013.9